Other Surface Observations
Issued by NWS

Current Version | Previous Version | Text Only | Print | Product List | Glossary On
Versions: 1 2 3 4 5 6 7 8 9 10 11 12 13 14 15 16 17 18 19 20 21 22 23 24 25 26 27 28 29 30 31 32 33 34 35 36 37 38 39 40 41 42 43 44 45 46 47 48 49 50
000
SXUS52 KTAE 240215
OSOTAE
OSOTAE
North Florida/South Alabama/Southwest Georgia Weather Roundup
National Weather Service Tallahassee Florida
1000 PM EDT TUE APR 23 2019

Note: "fair" indicates few or no clouds below 12,000 feet with no
significant weather and/or obstructions to visibility.

!FLZ017-115-028-034-025-240300
...North Florida...

CITY           SKY/WX    TMP DP  RH WIND       PRES   REMARKS
TALL INTL ARPT MOCLDY    71  55  56 W6        30.07R
FSU LOVE BLDG    N/A    N/A N/A N/A MISG        N/A
APALACHICOLA   FAIR      62  54  74 CALM      30.08R
PERRY          FAIR      65  61  86 CALM      30.08S
CROSS CITY     FAIR      63  58  84 CALM      30.08R
JACKSONVILLE   MOCLDY    67  50  54 S5        30.05F
$$

!FLZ112-006-005-002-011-240300
...Florida Panhandle...

CITY           SKY/WX    TMP DP  RH WIND       PRES   REMARKS
MARIANNA       FAIR      73  51  46 W7        30.07R
BONIFAY        NOT AVBL
PANAMA CITY NW FAIR      66  55  67 SW7       30.07S
TYNDALL AFB    FAIR      68  60  74 W6        30.08S
TYND DRONE APT NOT AVBL
DE FUNIAK SPR  FAIR      64  51  64 W5        30.09S
EGLIN AFB      NOT AVBL
DESTIN         FAIR      69  59  70 CALM      30.08S
HURLBURT       NOT AVBL
CRESTVIEW      FAIR      63  54  72 CALM      30.09F
PENSACOLA      FAIR      67  63  87 S3        30.07S
$$

!ALZ063-066-240300
...South Alabama...

CITY           SKY/WX    TMP DP  RH WIND       PRES   REMARKS
DOTHAN         FAIR      71  49  45 SW9       30.11R
OZARK CAIRNS   NOT AVBL
FT RUCKER HELI FAIR      70  53  53 SW3       30.08R
RUCKER HELI 3  FAIR     N/A N/A N/A SW6       30.07S
RUCKER HELI 2  FAIR      70  51  51 CALM      30.07R
FLORALA APT    FAIR      66  52  60 SW5       30.10S
ANDALUSIA      FAIR      70  52  52 CALM      30.08S
TROY           FAIR      65  60  84 SW5       30.08R
EUFALA         NOT AVBL
MOBILE         CLOUDY    67  60  78 SE5       30.06S
$$

!GAZ120>161-240300
...Southwest and South Central Georgia...

CITY           SKY/WX    TMP DP  RH WIND       PRES   REMARKS
THOMASVILLE    FAIR      70  55  60 SW5       30.08R
BAINBRIDGE       N/A     75  46  35 MISG      30.07S
MOODY AFB      FAIR      74  53  47 W5        30.05S
VALDOSTA       FAIR      64  55  72 CALM      30.07R
MOULTRIE       FAIR      68  55  64 CALM      30.07S
BLAKELY        FAIR      63  55  77 CALM      30.07R
ALBANY         FAIR      70  56  61 CALM      30.07S
TIFTON         FAIR      67  54  63 CALM      30.06
FITZGERALD     FAIR      66  61  84 CALM      30.08S
CORDELE        FAIR      67  57  69 CALM      30.07R
AMERICUS       FAIR      70  59  68 CALM      30.08R
HOMERVILLE     NOT AVBL
$$

!GMZ750-755-770-775-240300
...Coastal and Buoy Obs...

STATION/POSITION TIME  TEMP    WIND        PRES    VSBY  WAVE
                       AIR SEA DIR/SP/G                  HT/PER
                 (UTC) (F)     (DEG/KT/KT) (MB)    (MI)  (FT/S)
KEATON BEACH     0200   71     260/  5/  6 1018.4S
CEDAR KEY        0200   71     320/  3/  4 1018.4R
C TOWER          NOT AVBL
APALACHICOLA BUO NOT AVBL
PANAMA CITY BUOY NOT AVBL
MOBILE BUOY      0150          110/  8/  8 1018.6R
ORANGE BCH AL BU 0140                      1018.7
$$



USA.gov is the U.S. government's official web portal to all federal, state and local government web resources and services.